Wind_Speed
22 22 23 24 25 24 24 25 26 26 25 23 23 23 23 23 23 22 22 21 20 20 20 21 21 21 19 19 19 18 18 16 16 15 14 14 13 12 12 11 10 9 9
24 23 23 24 24 24 24 25 26 26 27 26 24 24 25 25 25 24 23 23 23 23 23 23 23 23 22 21 21 21 20 19 18 17 16 16 15 14 13 12 11 10 10
22 23 23 23 24 24 25 26 27 27 27 27 27 26 26 26 26 25 25 24 25 25 26 25 25 25 25 24 23 23 23 22 21 20 19 18 17 16 15 14 13 12 11
22 22 22 22 23 25 26 26 27 27 26 26 27 27 28 28 28 28 27 27 27 27 28 28 28 27 27 27 25 26 26 24 23 22 21 20 19 18 17 16 15 14 13
22 22 22 23 24 24 24 25 26 27 27 28 28 28 29 30 29 29 28 27 27 28 29 30 30 29 29 28 27 27 28 27 26 25 24 23 21 20 19 18 17 16 15
23 24 24 25 25 25 25 25 26 28 28 27 28 28 28 29 30 30 29 28 27 28 29 31 31 31 31 30 29 29 29 29 29 28 27 25 24 23 22 21 20 18 17
24 25 25 25 26 26 26 27 27 28 28 28 28 29 29 30 30 30 30 29 29 30 30 31 32 32 32 32 32 31 31 31 31 30 30 28 27 26 25 23 22 21 19
24 24 25 25 26 27 27 28 28 29 29 29 29 30 31 30 31 31 31 31 30 31 31 32 33 33 34 34 34 33 33 33 33 32 31 31 29 28 27 26 25 24 22
24 24 24 25 26 27 28 28 29 30 30 31 31 31 31 32 32 33 33 33 32 32 32 33 33 34 34 34 34 34 34 35 35 34 33 33 32 31 30 29 28 26 25
22 23 24 25 26 27 28 29 30 31 32 33 33 33 33 33 33 34 34 34 34 34 34 34 34 35 35 35 35 34 34 35 36 37 36 35 34 34 33 31 30 29 27
23 24 25 26 27 28 29 30 31 32 33 34 35 35 36 36 35 35 35 35 36 36 35 35 35 36 36 36 37 36 35 35 37 38 38 37 37 36 35 34 33 32 30
24 24 25 26 27 28 29 30 32 32 33 34 35 36 36 37 38 38 37 36 37 37 37 37 37 37 37 37 37 37 37 37 37 38 39 39 39 38 37 36 36 34 32
25 25 25 26 27 28 29 30 31 32 33 35 36 37 38 38 38 39 39 39 38 39 39 38 38 38 38 38 38 38 38 38 38 39 39 39 39 39 38 37 38 37 35
25 25 25 26 27 27 28 30 31 32 33 34 36 37 38 39 40 40 40 40 40 40 40 39 39 39 40 39 38 38 39 38 38 39 40 39 39 40 40 39 39 39 38
24 25 26 26 27 27 28 29 31 32 33 35 36 37 38 40 41 41 41 41 41 41 41 41 40 39 40 40 40 40 40 39 38 39 40 40 40 40 40 40 40 40 39
25 25 26 27 28 29 30 31 32 33 34 35 36 37 38 39 41 42 43 43 43 43 42 42 42 40 40 41 42 41 41 41 41 40 40 40 40 40 41 41 40 39 40
25 26 27 28 29 30 30 31 32 33 34 35 36 37 38 39 40 42 43 44 44 44 43 43 44 43 42 41 42 42 41 42 42 42 42 42 40 40 41 41 41 40 39
26 27 28 28 29 29 30 30 31 32 33 34 35 36 38 39 40 42 43 44 45 45 45 44 45 45 44 44 44 43 44 43 43 43 42 43 42 41 41 41 41 41 40
27 28 28 28 29 29 29 30 30 31 32 33 34 35 36 37 38 40 42 43 44 45 45 45 45 46 46 45 45 45 45 44 43 44 44 43 43 42 42 42 41 41 40
27 28 28 29 29 29 29 30 30 31 31 31 32 33 34 36 37 38 40 42 42 43 45 45 45 45 45 45 46 45 45 45 44 44 44 44 44 43 43 43 42 41 40
28 29 29 30 30 30 30 30 30 30 30 30 30 31 31 33 34 36 37 39 41 42 43 43 44 44 44 45 45 44 45 45 45 44 44 44 44 44 44 44 43 42 41
29 30 30 30 30 30 29 29 29 29 29 29 28 28 29 30 31 33 35 37 38 39 40 42 42 42 43 45 45 44 45 44 44 45 45 44 44 45 45 44 44 43 42
30 30 30 30 30 30 29 29 29 28 27 27 27 27 28 28 29 31 32 34 36 37 38 39 40 41 42 43 44 44 45 45 44 43 44 43 44 45 45 44 44 43 43
30 31 31 30 30 29 29 29 28 27 26 26 26 26 26 26 28 29 30 32 34 35 36 37 39 40 42 43 43 43 44 44 44 44 44 44 43 43 44 44 45 45 44
31 31 31 30 30 29 29 29 28 26 25 24 24 23 23 24 25 26 28 30 31 33 35 36 37 38 40 41 42 44 44 44 44 44 44 44 43 43 44 45 45 45 45
31 31 31 30 29 29 29 29 27 26 24 23 22 21 22 22 23 24 25 27 28 30 32 34 36 37 39 40 41 42 44 44 44 44 44 44 43 43 43 44 45 45 45
Wind_Direction
273 273 271 270 267 263 256 251 252 254 252 253 255 256 256 256 255 251 251 251 249 245 239 234 231 230 229 227 225 222 219 218 215 212 208 206 205 203 200 198 193 187 181
275 274 272 272 270 265 261 258 256 255 254 253 255 256 255 254 255 255 254 252 250 244 241 236 232 230 230 230 229 226 224 222 219 217 214 211 209 207 206 205 202 198 193
277 272 271 271 270 267 261 260 259 257 256 255 255 256 256 254 255 254 253 251 249 244 240 237 235 232 231 230 231 228 227 225 223 221 219 216 214 212 210 210 210 207 202
281 275 272 273 271 269 267 263 259 259 259 258 256 257 255 255 255 253 254 251 247 243 239 238 237 234 232 231 232 230 228 228 226 224 223 220 219 217 215 214 214 213 209
280 277 274 274 273 273 271 267 263 259 260 259 257 257 256 255 253 252 252 251 248 243 240 237 237 236 234 232 232 231 229 228 227 226 225 223 222 221 219 218 217 216 214
281 279 277 275 273 273 272 269 267 264 262 260 258 258 255 252 252 252 252 251 246 244 242 239 238 236 235 234 232 232 230 230 229 228 227 226 225 224 223 221 220 219 218
282 280 278 276 275 274 272 269 267 265 263 262 259 258 256 253 252 252 252 250 247 245 244 242 241 238 236 234 234 233 232 231 230 229 229 229 228 227 226 224 223 223 222
283 281 279 277 276 274 272 270 268 267 264 262 260 258 255 255 253 252 251 249 248 245 245 243 240 239 237 236 235 234 233 232 231 230 230 229 229 228 227 227 227 226 226
285 283 281 279 277 275 273 271 269 268 266 263 260 258 255 255 254 252 251 250 248 247 246 245 241 239 237 236 235 234 234 233 232 231 230 230 230 229 228 228 228 228 229
287 285 283 281 279 276 273 271 270 268 266 264 262 259 257 256 254 253 252 250 249 249 247 244 241 239 237 237 235 233 233 233 233 231 231 231 231 230 230 229 229 229 229
292 289 287 285 283 279 276 273 271 269 267 265 262 260 258 256 255 253 252 251 249 249 247 243 241 239 238 238 236 233 233 234 233 232 231 231 231 231 231 231 230 230 230
294 292 289 287 285 282 280 277 274 271 268 265 263 261 259 257 255 254 252 250 250 248 246 244 242 240 239 239 237 235 235 235 234 232 232 232 231 231 232 231 230 230 230
298 296 294 291 289 286 283 280 277 274 270 267 264 262 259 258 256 253 252 250 250 248 247 245 242 241 239 239 238 235 235 235 234 234 234 232 231 231 231 231 230 230 230
302 300 298 296 294 291 287 283 279 276 273 269 266 263 260 258 255 254 252 250 250 249 248 246 243 242 240 239 238 236 235 235 236 235 234 233 232 231 230 230 230 230 230
306 304 302 300 297 294 291 286 282 278 275 272 268 264 261 257 255 254 252 250 249 248 247 246 245 243 241 239 237 237 235 234 235 235 235 233 231 231 230 230 231 230 230
310 308 306 303 300 296 293 290 285 280 277 273 270 266 262 258 255 253 252 251 249 247 246 245 244 243 242 239 237 238 235 234 234 235 235 233 232 232 231 231 231 230 230
314 312 309 307 304 300 296 292 288 284 279 275 270 267 263 260 257 254 252 250 249 248 246 244 243 242 241 238 236 236 235 233 232 233 234 233 233 233 232 231 230 229 230
317 315 313 310 306 303 299 296 291 287 282 277 273 268 264 261 258 255 252 250 249 248 246 243 241 240 240 238 236 235 234 233 233 232 232 233 233 232 231 230 230 230 231
320 319 317 314 310 306 303 300 296 291 286 281 276 271 266 262 259 255 252 250 249 248 246 243 240 239 239 239 237 236 234 234 234 234 232 232 232 232 231 230 230 230 231
323 322 320 317 314 311 308 304 299 295 290 284 279 274 269 263 259 255 252 249 248 247 246 243 240 238 238 237 237 236 234 233 234 233 231 231 231 232 231 229 230 230 231
326 324 322 321 318 315 311 307 302 297 293 289 283 277 271 265 259 255 252 249 247 246 244 242 239 237 237 236 235 235 234 233 232 231 231 231 231 231 231 230 230 231 231
329 327 325 323 321 318 314 311 307 301 296 291 285 279 273 268 262 256 252 249 246 245 243 241 238 236 234 234 234 234 234 233 232 231 231 232 231 230 230 230 230 230 229
333 331 330 327 324 321 318 314 311 306 301 295 288 281 276 271 264 258 253 248 246 244 242 240 238 235 233 232 232 233 233 233 231 231 230 230 230 230 230 229 229 229 229
336 335 333 331 328 324 322 319 315 310 306 299 292 284 278 273 266 260 253 249 246 243 241 238 237 236 234 232 231 232 232 231 231 230 231 229 229 228 228 228 228 229 228
339 337 335 334 332 329 326 324 321 317 311 304 297 289 281 275 268 260 254 249 246 243 240 237 235 234 234 232 232 230 230 230 230 229 229 228 227 227 228 227 226 228 228
340 339 337 336 335 332 330 329 326 323 318 310 301 292 286 279 270 260 254 248 244 242 239 236 234 234 233 232 232 231 229 229 229 229 228 226 226 225 227 227 227 227 227
Height
5862 5862 5862 5863 5863 5864 5865 5866 5868 5869 5870 5872 5874 5875 5876 5877 5879 5880 5882 5883 5886 5888 5891 5893 5896 5898 5900 5903 5905 5908 5910 5913 5915 5917 5920 5922 5924 5926 5928 5930 5931 5933 5935
5857 5857 5857 5857 5857 5858 5859 5861 5862 5863 5865 5866 5868 5870 5871 5873 5874 5875 5877 5879 5881 5884 5887 5889 5891 5894 5897 5899 5902 5905 5908 5910 5913 5915 5918 5920 5922 5925 5927 5929 5931 5932 5934
5852 5852 5852 5852 5852 5853 5854 5855 5855 5856 5858 5860 5862 5864 5866 5867 5869 5870 5872 5874 5876 5878 5881 5884 5887 5889 5892 5895 5898 5901 5904 5907 5910 5913 5915 5918 5920 5923 5925 5928 5930 5931 5933
5847 5846 5847 5847 5847 5848 5848 5849 5850 5850 5852 5853 5855 5857 5859 5861 5863 5864 5866 5869 5871 5873 5876 5879 5882 5885 5887 5890 5894 5897 5900 5904 5907 5910 5913 5915 5918 5921 5923 5926 5928 5930 5932
5841 5841 5841 5841 5841 5842 5842 5843 5844 5845 5846 5847 5848 5850 5852 5855 5856 5858 5860 5862 5864 5867 5869 5872 5876 5879 5882 5886 5889 5892 5895 5899 5903 5906 5909 5912 5915 5918 5921 5923 5926 5928 5930
5836 5835 5835 5835 5835 5836 5836 5837 5838 5838 5839 5840 5841 5843 5845 5847 5850 5852 5854 5856 5858 5860 5862 5865 5869 5872 5876 5880 5884 5887 5890 5894 5898 5902 5905 5908 5912 5915 5918 5920 5923 5926 5928
5830 5830 5830 5830 5829 5830 5830 5830 5831 5832 5833 5834 5835 5836 5838 5840 5842 5845 5847 5849 5851 5854 5856 5859 5863 5866 5869 5873 5877 5881 5885 5888 5892 5896 5900 5904 5907 5911 5914 5917 5920 5923 5925
5824 5824 5823 5823 5823 5823 5823 5823 5823 5824 5825 5826 5828 5829 5831 5833 5835 5837 5839 5841 5844 5847 5850 5852 5855 5859 5862 5866 5871 5874 5878 5882 5886 5890 5894 5899 5903 5906 5909 5913 5916 5919 5922
5818 5817 5817 5816 5816 5816 5816 5816 5816 5816 5817 5818 5819 5821 5823 5825 5827 5829 5831 5834 5837 5839 5842 5844 5847 5851 5855 5858 5863 5867 5871 5875 5880 5884 5888 5892 5896 5900 5904 5908 5911 5915 5918
5812 5811 5810 5809 5809 5808 5808 5808 5808 5809 5809 5810 5811 5812 5814 5816 5818 5821 5823 5825 5828 5831 5834 5836 5840 5843 5847 5851 5855 5859 5863 5868 5873 5877 5882 5886 5890 5894 5898 5902 5906 5910 5913
5806 5805 5804 5803 5802 5801 5800 5800 5800 5800 5800 5801 5802 5803 5804 5806 5808 5811 5814 5817 5819 5822 5825 5828 5832 5835 5839 5842 5846 5850 5855 5860 5865 5869 5874 5879 5883 5887 5892 5896 5900 5904 5908
5800 5799 5797 5796 5794 5793 5792 5791 5791 5791 5791 5791 5792 5793 5794 5797 5799 5802 5805 5807 5809 5812 5815 5819 5822 5826 5830 5834 5837 5842 5847 5851 5856 5861 5866 5871 5875 5880 5884 5889 5893 5898 5902
5793 5792 5790 5788 5786 5785 5784 5783 5782 5781 5781 5782 5782 5783 5784 5787 5789 5791 5794 5797 5800 5803 5806 5809 5813 5816 5821 5825 5829 5834 5838 5842 5847 5852 5858 5863 5868 5872 5877 5881 5886 5891 5895
5787 5785 5783 5781 5779 5777 5775 5774 5773 5772 5771 5772 5772 5773 5774 5776 5778 5780 5783 5786 5790 5793 5796 5799 5803 5807 5811 5816 5820 5824 5829 5834 5838 5844 5849 5854 5859 5864 5869 5874 5879 5883 5888
5781 5778 5776 5773 5771 5769 5767 5765 5764 5762 5761 5761 5761 5762 5763 5764 5766 5769 5771 5775 5779 5782 5786 5790 5793 5797 5802 5807 5811 5815 5820 5826 5830 5835 5840 5846 5851 5856 5861 5866 5871 5876 5881
5774 5772 5769 5766 5763 5760 5758 5756 5754 5752 5751 5750 5750 5751 5751 5753 5755 5757 5760 5763 5767 5771 5775 5780 5783 5787 5791 5796 5801 5805 5811 5816 5821 5826 5831 5837 5842 5847 5852 5858 5863 5868 5873
5768 5765 5762 5758 5755 5752 5749 5746 5744 5742 5740 5739 5739 5739 5740 5741 5742 5744 5747 5750 5754 5758 5763 5768 5772 5776 5781 5786 5791 5795 5801 5806 5811 5816 5822 5828 5833 5838 5844 5849 5854 5860 5865
5762 5758 5754 5751 5747 5743 5740 5737 5734 5731 5730 5728 5727 5727 5728 5728 5730 5732 5734 5738 5741 5746 5750 5756 5760 5765 5770 5775 5780 5785 5791 5796 5801 5806 5812 5818 5824 5829 5835 5840 5846 5851 5857
5756 5752 5747 5743 5739 5735 5731 5727 5724 5721 5719 5717 5716 5715 5715 5716 5718 5719 5722 5725 5729 5733 5737 5743 5748 5753 5759 5764 5769 5775 5780 5786 5791 5797 5802 5808 5814 5820 5826 5831 5837 5843 5848
5750 5745 5740 5736 5731 5727 5723 5719 5715 5711 5709 5706 5704 5704 5703 5704 5706 5707 5710 5713 5716 5720 5724 5730 5736 5741 5747 5752 5758 5764 5769 5775 5781 5786 5792 5798 5804 5810 5816 5822 5829 5834 5840
5744 5739 5734 5729 5724 5719 5715 5710 5706 5702 5699 5696 5694 5693 5692 5693 5694 5695 5698 5701 5704 5708 5712 5717 5723 5729 5735 5741 5747 5753 5758 5764 5770 5776 5782 5788 5794 5801 5807 5813 5819 5825 5831
5738 5733 5727 5722 5717 5712 5707 5702 5697 5693 5689 5686 5684 5682 5682 5682 5683 5684 5686 5689 5692 5696 5701 5706 5711 5717 5724 5730 5736 5741 5748 5754 5761 5767 5772 5778 5784 5791 5797 5804 5810 5816 5822
5733 5727 5722 5716 5710 5705 5700 5695 5690 5685 5681 5678 5675 5673 5672 5672 5673 5674 5676 5678 5682 5685 5690 5695 5701 5706 5713 5719 5725 5731 5737 5743 5750 5756 5762 5768 5774 5781 5788 5794 5801 5807 5813
5728 5722 5716 5710 5704 5699 5693 5688 5683 5678 5674 5670 5667 5665 5663 5663 5663 5664 5666 5668 5671 5675 5679 5685 5691 5696 5701 5707 5714 5721 5726 5733 5740 5746 5752 5759 5765 5771 5778 5784 5790 5796 5803
5724 5718 5712 5705 5699 5693 5687 5682 5676 5671 5667 5663 5659 5657 5655 5654 5654 5655 5656 5659 5662 5665 5669 5674 5680 5685 5691 5697 5703 5710 5716 5723 5730 5736 5742 5749 5756 5761 5767 5774 5781 5787 5793
5720 5714 5707 5701 5695 5688 5682 5676 5670 5665 5661 5656 5653 5650 5648 5647 5646 5646 5648 5650 5653 5656 5660 5665 5670 5676 5681 5687 5693 5700 5707 5713 5720 5726 5733 5739 5746 5752 5758 5764 5771 5777 5783